When you browse on this site, cookies collect data to enhance your experience and personalize the content and advertising you see.
Visit our Privacy Policy to learn more. By continuing to use the site, you agree to this use of cookies and data.

Stündliche Wetter Shrewsbury

Heute, 14 August, Freitag

Zeit Temperatur Niederschläge Wind Luftdruck Luftfeuchtigkeit
00:00 +18°C° 0.2 mm 2 m/S 755 mmHg 95%
01:00 +18°C° 0.3 mm 2 m/S 755 mmHg 95%
02:00 +18°C° 0.3 mm 2 m/S 755 mmHg 95%
03:00 +19°C° 0.3 mm 1 m/S 755 mmHg 95%
04:00 +18°C° 0 mm 2 m/S 755 mmHg 95%
05:00 +18°C° 0 mm 2 m/S 755 mmHg 94%
06:00 +18°C° 0 mm 2 m/S 755 mmHg 94%
07:00 +19°C° 0 mm 2 m/S 755 mmHg 92%
08:00 +19°C° 0 mm 2 m/S 755 mmHg 89%
09:00 +20°C° 0 mm 3 m/S 755 mmHg 87%
10:00 +20°C° 0 mm 3 m/S 755 mmHg 85%
11:00 +21°C° 0 mm 2 m/S 755 mmHg 83%
12:00 +23°C° 0 mm 2 m/S 755 mmHg 81%
13:00 +23°C° 0 mm 2 m/S 755 mmHg 79%
14:00 +24°C° 0 mm 2 m/S 755 mmHg 78%
15:00 +24°C° 0 mm 2 m/S 755 mmHg 76%
16:00 +24°C° 0 mm 2 m/S 755 mmHg 77%
17:00 +24°C° 0 mm 2 m/S 755 mmHg 78%
18:00 +24°C° 0 mm 2 m/S 755 mmHg 79%
19:00 +22°C° 0 mm 3 m/S 755 mmHg 83%
20:00 +20°C° 0 mm 3 m/S 756 mmHg 86%
21:00 +18°C° 0 mm 3 m/S 756 mmHg 89%
22:00 +18°C° 0 mm 2 m/S 756 mmHg 91%
23:00 +17°C° 0 mm 2 m/S 756 mmHg 93%

Morgen, 15 August, Samstag

Zeit Temperatur Niederschläge Wind Luftdruck Luftfeuchtigkeit
00:00 +16°C° 0 mm 2 m/S 756 mmHg 95%
01:00 +16°C° 0 mm 2 m/S 756 mmHg 95%
02:00 +15°C° 0 mm 2 m/S 756 mmHg 95%
03:00 +15°C° 0 mm 1 m/S 756 mmHg 96%
04:00 +15°C° 0 mm 1 m/S 756 mmHg 94%
05:00 +16°C° 0 mm 2 m/S 756 mmHg 93%
06:00 +16°C° 0 mm 2 m/S 756 mmHg 92%
07:00 +17°C° 0 mm 2 m/S 756 mmHg 89%
08:00 +18°C° 0 mm 3 m/S 756 mmHg 86%
09:00 +18°C° 0 mm 4 m/S 756 mmHg 83%
10:00 +19°C° 0 mm 4 m/S 756 mmHg 80%
11:00 +20°C° 0 mm 4 m/S 756 mmHg 77%
12:00 +21°C° 0 mm 4 m/S 756 mmHg 74%
13:00 +21°C° 0.1 mm 3 m/S 756 mmHg 77%
14:00 +21°C° 0.1 mm 3 m/S 755 mmHg 79%
15:00 +20°C° 0.1 mm 3 m/S 755 mmHg 82%
16:00 +20°C° 0.3 mm 3 m/S 755 mmHg 84%
17:00 +19°C° 0.3 mm 3 m/S 755 mmHg 86%
18:00 +19°C° 0.3 mm 3 m/S 755 mmHg 88%
19:00 +18°C° 0.1 mm 3 m/S 755 mmHg 90%
20:00 +17°C° 0.1 mm 3 m/S 755 mmHg 92%
21:00 +16°C° 0.1 mm 3 m/S 755 mmHg 93%
22:00 +16°C° 0.1 mm 3 m/S 755 mmHg 93%
23:00 +16°C° 0.1 mm 3 m/S 755 mmHg 93%

übermorgen, 16 August, Sonntag

Zeit Temperatur Niederschläge Wind Luftdruck Luftfeuchtigkeit
00:00 +16°C° 0.1 mm 3 m/S 754 mmHg 93%
01:00 +14°C° 0.2 mm 3 m/S 754 mmHg 94%
02:00 +14°C° 0.2 mm 3 m/S 754 mmHg 94%
03:00 +14°C° 0.2 mm 3 m/S 754 mmHg 94%
04:00 +14°C° 0.7 mm 3 m/S 753 mmHg 95%
05:00 +14°C° 0.7 mm 3 m/S 753 mmHg 95%
06:00 +14°C° 0.7 mm 3 m/S 753 mmHg 96%
07:00 +14°C° 1.1 mm 3 m/S 753 mmHg 96%
08:00 +14°C° 1.1 mm 3 m/S 753 mmHg 96%
09:00 +16°C° 1.1 mm 3 m/S 753 mmHg 96%
10:00 +16°C° 0.7 mm 3 m/S 753 mmHg 96%
11:00 +17°C° 0.7 mm 3 m/S 753 mmHg 95%
12:00 +17°C° 0.7 mm 3 m/S 752 mmHg 94%
13:00 +18°C° 0.2 mm 3 m/S 752 mmHg 92%
14:00 +19°C° 0.2 mm 3 m/S 752 mmHg 91%
15:00 +19°C° 0.2 mm 4 m/S 751 mmHg 89%
16:00 +19°C° 1.3 mm 3 m/S 751 mmHg 90%
17:00 +19°C° 1.3 mm 3 m/S 751 mmHg 90%
18:00 +19°C° 1.3 mm 3 m/S 751 mmHg 91%
19:00 +18°C° 2.8 mm 3 m/S 751 mmHg 92%
20:00 +18°C° 2.8 mm 3 m/S 751 mmHg 94%
21:00 +17°C° 2.8 mm 3 m/S 751 mmHg 96%
22:00 +17°C° 1.8 mm 3 m/S 751 mmHg 97%
23:00 +17°C° 1.8 mm 3 m/S 750 mmHg 97%

17 August, Montag

Zeit Temperatur Niederschläge Wind Luftdruck Luftfeuchtigkeit
00:00 +16°C° 1.8 mm 3 m/S 750 mmHg 98%
01:00 +16°C° 1.1 mm 2 m/S 750 mmHg 98%
02:00 +16°C° 1.1 mm 2 m/S 750 mmHg 98%
03:00 +16°C° 1.1 mm 2 m/S 750 mmHg 98%
04:00 +16°C° 0.4 mm 1 m/S 749 mmHg 97%
05:00 +16°C° 0.4 mm 1 m/S 749 mmHg 97%
06:00 +16°C° 0.4 mm 1 m/S 749 mmHg 97%
07:00 +18°C° 0 mm 1 m/S 749 mmHg 94%
08:00 +19°C° 0 mm 1 m/S 749 mmHg 91%
09:00 +19°C° 0 mm 1 m/S 749 mmHg 87%
10:00 +19°C° 0.1 mm 2 m/S 749 mmHg 82%
11:00 +20°C° 0.1 mm 2 m/S 749 mmHg 77%
12:00 +21°C° 0.1 mm 3 m/S 749 mmHg 72%
13:00 +21°C° 0.8 mm 3 m/S 749 mmHg 73%
14:00 +21°C° 0.8 mm 3 m/S 749 mmHg 74%
15:00 +21°C° 0.8 mm 4 m/S 749 mmHg 75%
16:00 +21°C° 0.8 mm 3 m/S 749 mmHg 79%
17:00 +20°C° 0.8 mm 2 m/S 749 mmHg 82%
18:00 +20°C° 0.8 mm 2 m/S 749 mmHg 85%
19:00 +19°C° 0.3 mm 2 m/S 749 mmHg 88%
20:00 +17°C° 0.3 mm 2 m/S 750 mmHg 92%
21:00 +16°C° 0.3 mm 2 m/S 750 mmHg 95%
22:00 +16°C° 0 mm 2 m/S 750 mmHg 95%
23:00 +15°C° 0 mm 2 m/S 750 mmHg 95%

18 August, Dienstag

Zeit Temperatur Niederschläge Wind Luftdruck Luftfeuchtigkeit
00:00 +15°C° 0 mm 2 m/S 750 mmHg 96%
01:00 +15°C° 0 mm 2 m/S 751 mmHg 96%
02:00 +15°C° 0 mm 2 m/S 751 mmHg 95%
03:00 +15°C° 0 mm 2 m/S 751 mmHg 95%
04:00 +15°C° 0 mm 2 m/S 751 mmHg 95%
05:00 +15°C° 0 mm 2 m/S 751 mmHg 95%
06:00 +15°C° 0 mm 2 m/S 751 mmHg 96%
07:00 +17°C° 0.1 mm 2 m/S 751 mmHg 92%
08:00 +18°C° 0.1 mm 3 m/S 752 mmHg 89%
09:00 +19°C° 0.1 mm 3 m/S 752 mmHg 86%
10:00 +19°C° 0.4 mm 4 m/S 752 mmHg 83%
11:00 +20°C° 0.4 mm 5 m/S 752 mmHg 79%
12:00 +21°C° 0.4 mm 5 m/S 752 mmHg 76%
13:00 +21°C° 0.2 mm 5 m/S 752 mmHg 75%
14:00 +21°C° 0.2 mm 5 m/S 752 mmHg 75%
15:00 +21°C° 0.2 mm 5 m/S 752 mmHg 74%
16:00 +20°C° 0 mm 5 m/S 752 mmHg 76%
17:00 +20°C° 0 mm 4 m/S 752 mmHg 79%
18:00 +19°C° 0 mm 3 m/S 752 mmHg 81%
19:00 +18°C° 0 mm 3 m/S 753 mmHg 85%
20:00 +16°C° 0 mm 3 m/S 753 mmHg 89%
21:00 +15°C° 0 mm 2 m/S 753 mmHg 92%
22:00 +15°C° 0 mm 2 m/S 753 mmHg 93%
23:00 +15°C° 0 mm 2 m/S 753 mmHg 94%

19 August, Mittwoch

Zeit Temperatur Niederschläge Wind Luftdruck Luftfeuchtigkeit
00:00 +15°C° 0 mm 2 m/S 753 mmHg 96%
01:00 +15°C° 0 mm 2 m/S 753 mmHg 95%
02:00 +15°C° 0 mm 2 m/S 752 mmHg 95%
03:00 +15°C° 0 mm 2 m/S 752 mmHg 95%
04:00 +15°C° 0 mm 2 m/S 752 mmHg 95%
05:00 +15°C° 0 mm 2 m/S 752 mmHg 94%
06:00 +15°C° 0 mm 2 m/S 752 mmHg 94%
07:00 +16°C° 0 mm 2 m/S 752 mmHg 92%
08:00 +16°C° 0 mm 2 m/S 752 mmHg 90%
09:00 +17°C° 0 mm 2 m/S 752 mmHg 88%
10:00 +17°C° 0 mm 2 m/S 752 mmHg 87%
11:00 +18°C° 0 mm 3 m/S 751 mmHg 86%
12:00 +18°C° 0 mm 3 m/S 751 mmHg 85%
13:00 +20°C° 0 mm 3 m/S 751 mmHg 81%
14:00 +22°C° 0 mm 4 m/S 751 mmHg 77%
15:00 +23°C° 0 mm 5 m/S 750 mmHg 73%
16:00 +22°C° 0.1 mm 4 m/S 750 mmHg 77%
17:00 +22°C° 0.1 mm 4 m/S 750 mmHg 81%
18:00 +21°C° 0.1 mm 4 m/S 750 mmHg 84%
19:00 +20°C° 0.1 mm 4 m/S 750 mmHg 87%
20:00 +19°C° 0.1 mm 3 m/S 749 mmHg 90%
21:00 +18°C° 0.1 mm 3 m/S 749 mmHg 92%
22:00 +18°C° 0.1 mm 4 m/S 749 mmHg 93%
23:00 +18°C° 0.1 mm 4 m/S 749 mmHg 94%
Mehr zeigen